N8QF-1 Weather Reports


Display with metric or nautical units.
time (UTC)temp
F
wind
direction
speed
MPH
gust
MPH
rain 1hr
in
rain 24hr
in
rain mn
in
humidity
%
barometer
mb
20260504223825 75 203 3.0 8.0 0.00 0.00 0.00 42 1005.9
20260504223324 74 212 4.0 9.0 0.00 0.00 0.00 42 1006.0
20260504222822 74 235 6.0 8.0 0.00 0.00 0.00 42 1006.2
20260504222322 74 226 6.0 14.0 0.00 0.00 0.00 43 1006.2
20260504221822 75 190 10.0 14.0 0.00 0.00 0.00 42 100.6
20260504221320 74 158 9.0 10.0 0.00 0.00 0.00 42 1006.0
20260504220820 75 184 5.0 11.0 0.00 0.00 0.00 42 1006.0
20260504220319 75 210 4.0 9.0 0.00 0.00 0.00 43 1006.1
20260504215819 74 222 5.0 10.0 0.00 0.00 0.00 43 1006.1
20260504215318 74 211 4.0 9.0 0.00 0.00 0.00 43 1006.0
20260504214818 74 208 6.0 9.0 0.00 0.00 0.00 44 1006.1
20260504214317 73 204 5.0 13.0 0.00 0.00 0.00 44 1006.2
20260504213817 73 255 8.0 16.0 0.00 0.00 0.00 43 1006.6
20260504213314 73 210 8.0 16.0 0.00 0.00 0.00 44 1006.6
20260504212814 73 236 8.0 14.0 0.00 0.00 0.00 44 1006.7
20260504212313 73 217 10.0 17.0 0.00 0.00 0.00 44 1006.8
20260504211312 74 255 10.0 20.0 0.00 0.00 0.00 43 1006.7
20260504210812 73 221 10.0 19.0 0.00 0.00 0.00 43 1006.9
20260504210311 73 225 7.0 19.0 0.00 0.00 0.00 45 1006.8
20260504205310 73 207 11.0 15.0 0.00 0.00 0.00 45 1006.9
20260504204809 72 198 11.0 12.0 0.00 0.00 0.00 46 1007.0
20260504204309 72 201 8.0 15.0 0.00 0.00 0.00 46 1006.9
20260504203807 72 243 8.0 13.0 0.00 0.00 0.00 48 1007.2
20260504202806 71 236 4.0 10.0 0.00 0.00 0.00 51 1007.6
20260504202305 71 226 6.0 16.0 0.00 0.00 0.00 51 1007.8
20260504201804 71 228 4.0 11.0 0.00 0.00 0.00 50 1007.7
20260504201304 71 224 5.0 12.0 0.00 0.00 0.00 52 1007.7
20260504200803 70 214 5.0 17.0 0.00 0.00 0.00 54 1007.7
20260504200303 69 219 10.0 17.0 0.00 0.00 0.00 54 1007.8
20260504195802 68 239 9.0 10.0 0.00 0.00 0.00 56 1007.8
20260504194801 68 210 3.0 8.0 0.00 0.00 0.00 60 1007.9
20260504193759 67 190 5.0 10.0 0.00 0.00 0.00 60 1008.0
20260504193258 67 191 8.0 5.0 0.00 0.00 0.00 60 1008.1
20260504192758 67 163 3.0 8.0 0.00 0.00 0.00 60 1007.9
20260504192258 67 167 5.0 15.0 0.00 0.00 0.00 60 1008.1
20260504191757 67 211 7.0 14.0 0.00 0.00 0.00 60 1008.5
20260504191257 67 236 7.0 10.0 0.00 0.00 0.00 60 1008.3
20260504190756 66 190 6.0 14.0 0.00 0.00 0.00 60 1007.8
20260504190255 66 180 7.0 18.0 0.00 0.00 0.00 59 1008.2
20260504185754 67 194 7.0 14.0 0.00 0.00 0.00 58 1009.3
20260504185253 68 200 8.0 16.0 0.00 0.00 0.00 54 1009.0
20260504184753 69 259 10.0 14.0 0.00 0.00 0.00 52 1008.9
20260504184252 69 228 9.0 17.0 0.00 0.00 0.00 52 1008.9
20260504183752 69 271 7.0 22.0 0.00 0.00 0.00 53 1008.7
20260504183251 70 221 12.0 24.0 0.00 0.00 0.00 51 1008.7
20260504182248 70 215 17.0 24.0 0.00 0.00 0.00 49 1008.3
20260504181748 70 235 11.0 17.0 0.00 0.00 0.00 49 1008.0
20260504181247 71 224 10.0 14.0 0.00 0.00 0.00 49 1008.1
20260504180747 72 134 11.0 17.0 0.00 0.00 0.00 49 1008.0
20260504180246 72 201 7.0 20.0 0.00 0.00 0.00 50 1007.9
20260504175746 71 219 11.0 14.0 0.00 0.00 0.00 51 1007.8
20260504175246 71 139 10.0 16.0 0.00 0.00 0.00 50 1007.9
20260504174744 70 193 5.0 12.0 0.00 0.00 0.00 49 1007.7
20260504174244 71 250 9.0 20.0 0.00 0.00 0.00 50 1007.6
20260504173743 71 222 11.0 21.0 0.00 0.00 0.00 51 1007.8
20260504173243 69 207 13.0 19.0 0.00 0.00 0.00 50 1008.0
20260504172742 69 232 12.0 21.0 0.00 0.00 0.00 51 1008.0
20260504172242 69 159 8.0 17.0 0.00 0.00 0.00 52 1008.0
20260504171741 69 190 7.0 10.0 0.00 0.00 0.00 52 1008.1
20260504171241 68 195 6.0 14.0 0.00 0.00 0.00 53 1008.1
20260504170740 68 208 10.0 16.0 0.00 0.00 0.00 53 1008.3
20260504170240 68 233 7.0 14.0 0.00 0.00 0.00 53 1008.2
20260504160233 66 225 9.0 16.0 0.00 0.00 0.00 53 1008.5
20260504150723 63 217 7.0 15.0 0.00 0.00 0.00 56 1009.1
20260504150222 63 224 8.0 17.0 0.00 0.00 0.00 55 1008.8
20260504141216 61 207 6.0 13.0 0.00 0.00 0.00 59 1009.2
20260504140715 61 187 8.0 14.0 0.00 0.00 0.00 59 1009.3
20260504140215 61 193 6.0 16.0 0.00 0.00 0.00 59 1009.5
20260504130709 58 203 7.0 10.0 0.00 0.00 0.00 62 1009.3
20260504130209 58 197 5.0 7.0 0.00 0.00 0.00 62 1009.6
20260504120201 53 146 2.0 4.0 0.00 0.00 0.00 67 1009.5
20260504110654 51 118 2.0 6.0 0.00 0.00 0.00 67 1009.6
20260504110153 50 118 3.0 5.0 0.00 0.00 0.00 67 1009.7
20260504100146 51 141 2.0 5.0 0.00 0.00 0.00 65 1009.8
20260504090140 53 113 3.0 4.0 0.00 0.00 0.00 60 1010.3
20260504081635 54 197 4.0 9.0 0.00 0.00 0.00 56 1010.5
20260504080634 54 187 4.0 7.0 0.00 0.00 0.00 57 1010.5
20260504080133 54 158 5.0 9.0 0.00 0.00 0.00 56 1010.5
20260504070127 55 153 5.0 8.0 0.00 0.00 0.00 55 1011.0
20260504060119 55 229 5.0 10.0 0.00 0.00 0.00 54 1011.6
20260504050611 55 166 3.0 8.0 0.00 0.00 0.00 54 1012.1
20260504050110 55 198 5.0 9.0 0.00 0.00 0.00 54 1012.1
20260504045610 55 188 4.0 8.0 0.00 0.00 0.00 53 1012.2
20260504045109 55 163 4.0 9.0 0.00 0.00 0.00 53 1012.1
20260504044609 55 197 5.0 7.0 0.00 0.00 0.00 53 1012.2
20260504044108 56 194 5.0 7.0 0.00 0.00 0.00 53 1012.2
20260504043608 56 181 5.0 10.0 0.00 0.00 0.00 52 1012.2
20260504043107 56 174 5.0 10.0 0.00 0.00 0.00 51 1012.3
20260504042607 56 212 3.0 9.0 0.00 0.00 0.00 51 1012.3
20260504042106 57 169 3.0 8.0 0.00 0.00 0.00 51 1012.3
20260504041105 57 153 4.0 9.0 0.00 0.00 0.00 51 1012.5
20260504040605 57 127 3.0 10.0 0.00 0.00 0.00 50 1012.5
20260504035603 57 169 6.0 14.0 0.00 0.00 0.00 49 1012.5
20260504034601 57 197 6.0 11.0 0.00 0.00 0.00 49 1012.6
20260504034101 57 222 5.0 11.0 0.00 0.00 0.00 49 1012.6
20260504033600 57 197 6.0 9.0 0.00 0.00 0.00 48 1012.7
20260504033100 58 207 6.0 11.0 0.00 0.00 0.00 48 1012.7
20260504032059 58 167 7.0 15.0 0.00 0.00 0.00 47 1012.6
20260504031558 58 162 8.0 12.0 0.00 0.00 0.00 47 1012.7
20260504031058 58 201 5.0 8.0 0.00 0.00 0.00 47 1012.8
20260504030557 58 200 6.0 8.0 0.00 0.00 0.00 47 1012.8
20260504030057 58 159 4.0 8.0 0.00 0.00 0.00 47 1012.9
20260504025556 58 207 4.0 10.0 0.00 0.00 0.00 47 1012.9
20260504025056 58 172 7.0 10.0 0.00 0.00 0.00 46 1013.0
20260504024555 58 156 5.0 9.0 0.00 0.00 0.00 46 1013.0
20260504024055 58 167 5.0 11.0 0.00 0.00 0.00 45 1013.0
20260504023554 58 180 5.0 10.0 0.00 0.00 0.00 45 1013.1
20260504023053 58 177 8.0 11.0 0.00 0.00 0.00 44 1013.1
20260504022552 59 177 5.0 9.0 0.00 0.00 0.00 44 1013.1
20260504022052 59 159 4.0 9.0 0.00 0.00 0.00 43 1013.1
20260504021551 59 218 5.0 9.0 0.00 0.00 0.00 43 1013.1
20260504021050 59 131 2.0 7.0 0.00 0.00 0.00 43 1013.1
20260504020550 59 187 4.0 7.0 0.00 0.00 0.00 42 1013.1
20260504020049 59 165 3.0 8.0 0.00 0.00 0.00 42 1013.1
20260504015549 59 222 3.0 6.0 0.00 0.00 0.00 41 1012.9
20260504015049 59 201 2.0 7.0 0.00 0.00 0.00 41 1013.0
20260504014548 59 167 5.0 7.0 0.00 0.00 0.00 40 1013.0
20260504014047 59 190 4.0 8.0 0.00 0.00 0.00 40 1012.9
20260504013547 60 169 3.0 8.0 0.00 0.00 0.00 40 1012.9
20260504013046 60 195 3.0 9.0 0.00 0.00 0.00 40 1012.8
20260504012546 60 166 4.0 6.0 0.00 0.00 0.00 39 1012.8
20260504012045 59 158 2.0 5.0 0.00 0.00 0.00 40 1012.7
20260504011545 60 208 1.0 8.0 0.00 0.00 0.00 40 1012.7
20260504011044 60 158 2.0 8.0 0.00 0.00 0.00 40 1012.7
20260504010544 60 172 5.0 6.0 0.00 0.00 0.00 40 1012.7
20260504005543 60 194 4.0 8.0 0.00 0.00 0.00 40 1012.7
20260504005042 60 184 5.0 7.0 0.00 0.00 0.00 40 1012.8
20260504004542 60 187 3.0 6.0 0.00 0.00 0.00 40 1012.7
20260504004041 60 214 2.0 8.0 0.00 0.00 0.00 40 1012.7
20260504003541 60 172 4.0 8.0 0.00 0.00 0.00 40 1012.7
20260504003040 60 186 4.0 9.0 0.00 0.00 0.00 40 1012.5
20260504002539 60 210 6.0 9.0 0.00 0.00 0.00 40 1012.4
20260504002039 60 221 5.0 10.0 0.00 0.00 0.00 39 1012.7
20260504001538 60 165 3.0 10.0 0.00 0.00 0.00 39 1012.7
20260504000537 60 191 5.0 12.0 0.00 0.00 0.00 38 1012.6
20260504000037 60 159 6.0 11.0 0.00 0.00 0.00 38 1012.5
20260503235034 60 193 6.0 10.0 0.00 0.00 0.00 38 1012.5
20260503234533 60 184 7.0 11.0 0.00 0.00 0.00 37 1012.4
20260503234033 61 163 6.0 15.0 0.00 0.00 0.00 37 1012.3
20260503233532 61 177 5.0 11.0 0.00 0.00 0.00 37 1012.3
20260503232531 61 184 4.0 17.0 0.00 0.00 0.00 37 1012.5
20260503232031 61 207 10.0 11.0 0.00 0.00 0.00 36 1012.6
20260503231030 61 217 9.0 13.0 0.00 0.00 0.00 36 1012.9
20260503230529 61 208 7.0 11.0 0.00 0.00 0.00 36 1013.1
20260503230028 61 208 7.0 18.0 0.00 0.00 0.00 35 1013.2
20260503225528 61 242 7.0 18.0 0.00 0.00 0.00 35 1013.4
20260503225027 61 211 11.0 22.0 0.00 0.00 0.00 35 1013.4
20260503224527 61 228 6.0 18.0 0.00 0.00 0.00 35 1013.5